Location: Holcomb Observatory
(44.4922°N, 73.1654°W)
Time: 22:37:45
(UTC-05:00)

Cosmos 2360 Rocket - Visible Passes

Search period start: 21 January 2017 00:00
Search period end: 31 January 2017 00:00
Orbit: 836 x 844 km, 71.0° (Epoch: 21 January)

Date Brightness Start Highest point End Pass type
(mag) Time Alt. Az. Time Alt. Az. Time Alt. Az.
21 Jan 4.7 18:26:58 10° WNW 18:29:26 13° NW 18:31:53 10° NNW visible
22 Jan 4.6 18:10:59 10° WNW 18:13:41 13° NW 18:16:23 10° NNW visible
23 Jan 4.6 17:55:02 10° WNW 17:57:56 14° NW 18:00:51 10° N visible
24 Jan 4.5 17:39:06 10° WNW 17:42:12 15° NW 17:45:18 10° N visible
25 Jan 4.5 17:23:11 10° WNW 17:26:28 15° NW 17:29:45 10° N visible
